North Platte, NE

11:57 AM CDT on September 22, 2017 (GMT -0500)
North Platte Regional-Bird

Weather History for KLBF - February, 2011

Change the Weather History Date:

Monday, February 28, 2011

  Actual Average Record
Temperature  
Mean Temperature 35 °F 33 °F  
Max Temperature 58 °F 47 °F 76 °F (1972)
Min Temperature 11 °F 19 °F -22 °F (1962)
Degree Days  
Heating Degree Days 30 32  
Month to date heating degree days 1113 1007  
Since 1 July heating degree days 5062 5028  
Cooling Degree Days 0 0  
Month to date cooling degree days 0 0  
Year to date cooling degree days 0 0  
Moisture  
Dew Point 19 °F    
Average Humidity 59    
Maximum Humidity 92    
Minimum Humidity 26    
Precipitation  
Precipitation 0.00 in 0.02 in 0.40 in (1958)
Month to date precipitation 0.68 0.50  
Year to date precipitation 1.73 0.84  
Snow  
Snow 0.00 in 0.20 in 4.90 in (1958)
Month to date snowfall 7.2 5.3  
Since 1 July snowfall 30.0 20.9  
Snow Depth T in    
Sea Level Pressure  
Sea Level Pressure 30.10 in    
Wind  
Wind Speed 7 mph (SW)    
Max Wind Speed 21 mph    
Max Gust Speed 26 mph    
Visibility 10 miles    
Events      
T = Trace of Precipitation, MM = Missing Value Source: NWS Daily Summary

Daily Weather History Graph

Daily Weather History Graph

Search for Another Location

Airport or City:

Trip Planner

Search our weather history database for the weather conditions in past years. The results will help you decide how hot, cold, wet, or windy it might be!

Date:

Astronomy

Feb. 28, 2011 Rise Set
Actual Time 7:18 AM CST 6:32 PM CST
Civil Twilight 6:51 AM CST 6:59 PM CST
Nautical Twilight 6:19 AM CST 7:31 PM CST
Astronomical Twilight 5:47 AM CST 8:03 PM CST
Moon 4:54 AM CST (2/28) 2:48 PM CST (2/28)
Length of Visible Light 12h 08m
Length of Day
11h 13m
Waning Crescent, 15% of the Moon is Illuminated
Feb 28
Waning Crescent
Mar 4
New
Mar 12
First Quarter
Mar 19
Full
Mar 26
Last Quarter

Hourly Weather History & Observations

Time (CST) Temp. Windchill Dew Point Humidity Pressure Visibility Wind Dir Wind Speed Gust Speed Precip Events Conditions
12:53 AM 18.0 °F 11.1 °F 14.0 °F 84% 30.06 in 10.0 mi NW 4.6 mph - N/A   Clear
1:53 AM 17.6 °F 9.3 °F 14.0 °F 86% 30.00 in 10.0 mi NW 5.8 mph - N/A   Clear
2:53 AM 15.1 °F 6.4 °F 12.9 °F 91% 30.11 in 10.0 mi NW 5.8 mph - N/A   Clear
3:53 AM 15.1 °F 6.4 °F 12.0 °F 88% 30.11 in 10.0 mi NW 5.8 mph - N/A   Clear
4:53 AM 14.0 °F 6.5 °F 10.9 °F 88% 30.14 in 10.0 mi WNW 4.6 mph - N/A   Clear
5:53 AM 14.0 °F - 10.9 °F 88% 30.17 in 10.0 mi Calm Calm - N/A   Clear
6:53 AM 12.9 °F - 10.0 °F 88% 30.19 in 10.0 mi Calm Calm - N/A   Clear
7:53 AM 15.1 °F - 12.0 °F 88% 30.21 in 10.0 mi Calm Calm - N/A   Clear
8:53 AM 24.1 °F 17.0 °F 18.0 °F 77% 30.20 in 10.0 mi SSW 5.8 mph - N/A   Clear
9:53 AM 30.9 °F 27.5 °F 23.0 °F 72% 30.20 in 10.0 mi WSW 3.5 mph - N/A   Clear
10:53 AM 37.4 °F 29.3 °F 21.2 °F 52% 30.10 in 10.0 mi SW 12.7 mph 21.9 mph N/A   Clear
11:53 AM 43.0 °F 35.7 °F 19.9 °F 40% 30.17 in 10.0 mi SSW 15.0 mph - N/A   Clear
12:53 PM 46.9 °F - 21.0 °F 36% 30.14 in 10.0 mi SSW 17.3 mph 21.9 mph N/A   Clear
1:53 PM 51.1 °F - 23.0 °F 33% 30.09 in 10.0 mi SSW 17.3 mph 25.3 mph N/A   Clear
2:53 PM 55.0 °F - 23.0 °F 29% 30.04 in 10.0 mi SSW 18.4 mph 26.5 mph N/A   Clear
3:53 PM 55.0 °F - 21.9 °F 28% 30.04 in 10.0 mi SSW 12.7 mph 20.7 mph N/A   Clear
4:53 PM 57.0 °F - 24.1 °F 28% 30.03 in 10.0 mi SSW 10.4 mph 19.6 mph N/A   Clear
5:53 PM 55.0 °F - 24.1 °F 30% 30.03 in 10.0 mi SE 4.6 mph - N/A   Clear
6:53 PM 46.9 °F - 24.1 °F 41% 30.06 in 10.0 mi South 6.9 mph - N/A   Clear
7:53 PM 43.0 °F 37.2 °F 25.0 °F 49% 30.07 in 10.0 mi SSE 10.4 mph - N/A   Clear
8:53 PM 41.0 °F 37.1 °F 25.0 °F 53% 30.06 in 10.0 mi South 5.8 mph - N/A   Clear
9:53 PM 43.0 °F - 21.9 °F 43% 30.07 in 10.0 mi Calm Calm - N/A   Clear
10:53 PM 33.1 °F - 23.0 °F 66% 30.08 in 10.0 mi Calm Calm - N/A   Clear
11:53 PM 28.0 °F - 21.9 °F 78% 30.06 in 10.0 mi Calm Calm - N/A   Clear